TimeHST,TemperatureF,Dew PointF,Humidity,Sea Level PressureIn,VisibilityMPH,Wind Direction,Wind SpeedMPH,Gust SpeedMPH,PrecipitationIn,Events,Conditions,WindDirDegrees,DateUTC
12:53 AM,72.0,66.0,81,30.01,10.0,Variable,3.5,-,N/A,,Clear,0,2013-09-27 10:53:00
1:53 AM,71.1,66.0,84,30.01,10.0,Calm,Calm,-,N/A,,Clear,0,2013-09-27 11:53:00
2:53 AM,72.0,66.0,81,30.00,10.0,ENE,3.5,-,N/A,,Partly Cloudy,60,2013-09-27 12:53:00
3:53 AM,71.1,66.0,84,30.00,10.0,Variable,3.5,-,N/A,,Clear,0,2013-09-27 13:53:00
4:53 AM,71.1,66.0,84,30.01,10.0,Calm,Calm,-,N/A,,Partly Cloudy,0,2013-09-27 14:53:00
5:53 AM,71.1,66.0,84,30.02,10.0,NE,3.5,-,N/A,,Clear,50,2013-09-27 15:53:00
6:53 AM,71.1,66.0,84,30.04,10.0,Calm,Calm,-,N/A,,Clear,0,2013-09-27 16:53:00
7:53 AM,73.9,66.9,79,30.05,10.0,Variable,3.5,-,N/A,,Clear,0,2013-09-27 17:53:00
8:53 AM,78.1,66.9,68,30.08,10.0,Calm,Calm,-,N/A,,Clear,0,2013-09-27 18:53:00
9:53 AM,81.0,66.0,60,30.09,10.0,Variable,6.9,16.1,N/A,,Partly Cloudy,0,2013-09-27 19:53:00
10:53 AM,82.0,66.9,60,30.08,10.0,Variable,6.9,17.3,N/A,,Clear,0,2013-09-27 20:53:00
11:53 AM,82.0,68.0,62,30.06,10.0,ESE,10.4,16.1,N/A,,Scattered Clouds,120,2013-09-27 21:53:00
12:53 PM,82.9,66.9,58,30.05,10.0,ESE,8.1,17.3,N/A,,Mostly Cloudy,110,2013-09-27 22:53:00
1:53 PM,82.9,66.0,56,30.04,10.0,ESE,9.2,-,N/A,,Clear,110,2013-09-27 23:53:00
2:53 PM,82.9,64.0,53,30.03,10.0,East,10.4,19.6,N/A,,Clear,100,2013-09-28 00:53:00
3:53 PM,82.0,64.9,56,30.04,10.0,East,9.2,18.4,N/A,,Clear,80,2013-09-28 01:53:00
4:53 PM,81.0,66.0,60,30.05,10.0,ENE,9.2,-,N/A,,Partly Cloudy,70,2013-09-28 02:53:00
5:53 PM,80.1,64.9,60,30.06,10.0,Variable,6.9,17.3,N/A,,Clear,0,2013-09-28 03:53:00
6:53 PM,77.0,64.9,66,30.08,10.0,ENE,5.8,-,N/A,,Clear,70,2013-09-28 04:53:00
7:16 PM,77.0,64.4,65,30.07,10.0,Variable,3.5,-,N/A,,Partly Cloudy,0,2013-09-28 05:16:00
7:53 PM,75.0,64.9,71,30.10,10.0,Calm,Calm,-,N/A,,Clear,0,2013-09-28 05:53:00
8:53 PM,73.9,64.9,73,30.11,10.0,ENE,4.6,-,N/A,,Clear,70,2013-09-28 06:53:00
9:53 PM,73.0,66.0,79,30.12,10.0,Calm,Calm,-,N/A,,Clear,0,2013-09-28 07:53:00
10:53 PM,71.1,64.9,81,30.12,10.0,Calm,Calm,-,N/A,,Clear,0,2013-09-28 08:53:00
11:53 PM,73.0,66.0,79,30.12,10.0,Calm,Calm,-,N/A,,Clear,0,2013-09-28 09:53:00